Weather History for Hyderabad, India

Change the Weather History Date:

Thursday, October 31, 2013

  Actual Average Record
Temperature  
Mean Temperature 75 °F -  
Max Temperature 86 °F 82 °F 88 °F (2012)
Min Temperature 64 °F 64 °F 56 °F (2014)
Cooling Degree Days 10    
Growing Degree Days 25 (Base 50)    
Moisture  
Dew Point 61 °F    
Average Humidity 56    
Maximum Humidity 82    
Minimum Humidity 37    
Precipitation  
Precipitation 0.00 in 0.04 in - ()
Sea Level Pressure  
Sea Level Pressure 29.99 in    
Wind  
Wind Speed 1 mph ()    
Max Wind Speed 7 mph    
Max Gust Speed -    
Visibility 2.9 miles    
Events      
Averages and records for this station are not official NWS values.
T = Trace of Precipitation, MM = Missing Value Source: Averaged Metar Reports

Daily Weather History Graph

Daily Weather History Graph

Search for Another Location

Airport:

Trip Planner

Search our weather history database for the weather conditions in past years. The results will help you decide how hot, cold, wet, or windy it might be!

Date:

Astronomy

Oct. 31, 2013 Rise Set
Actual Time 6:14 AM IST 5:44 PM IST
Civil Twilight 5:51 AM IST 6:07 PM IST
Nautical Twilight 5:26 AM IST 6:33 PM IST
Astronomical Twilight 5:00 AM IST 6:58 PM IST
Moon 3:04 AM IST (10/31) 3:23 PM IST (10/31)
Length of Visible Light 12h 15m
Length of Day
11h 30m
Waning Crescent, 12% of the Moon is Illuminated
Oct 31
Waning Crescent
Nov 3
New
Nov 10
First Quarter
Nov 17
Full
Nov 26
Last Quarter

Hourly Weather History & Observations

Time (IST) Temp. Heat Index Dew Point Humidity Pressure Visibility Wind Dir Wind Speed Gust Speed Precip Events Conditions
2:30 AM 70 °F - 65 °F 79% 29.93 in 2 mi Calm Calm - -   Haze
5:30 AM 67 °F - 63 °F 82% 29.95 in 2 mi Calm Calm - -   Haze
6:10 AM 62.6 °F - 55.4 °F 77% 30.04 in 1.9 mi Calm Calm - N/A   Haze
7:10 AM 64.4 °F - 57.2 °F 77% 30.06 in 1.9 mi Calm Calm - N/A   Haze
8:10 AM 71.6 °F - 59.0 °F 64% 30.09 in 1.9 mi Calm Calm - N/A   Haze
8:30 AM 73 °F - 61 °F 58% 29.99 in 2 mi Calm Calm - -   Haze
11:10 AM 86.0 °F 85.4 °F 59.0 °F 40% 30.06 in 3.7 mi Calm Calm - N/A   Scattered Clouds
11:30 AM 83 °F - 61 °F 37% 29.93 in 6 mi Calm Calm - -   Scattered Clouds
12:10 PM 86.0 °F 85.4 °F 59.0 °F 40% 30.04 in 3.7 mi Calm Calm - N/A   Partly Cloudy
1:10 PM 87.8 °F 87.1 °F 59.0 °F 38% 30.01 in 3.7 mi Calm Calm - N/A   Partly Cloudy
1:40 PM 87.8 °F 87.6 °F 60.8 °F 40% 30.01 in 3.7 mi North 3.5 mph - N/A   Partly Cloudy
2:30 PM 86 °F - 64 °F 37% 29.84 in 6 mi 2.3 mph - -   Scattered Clouds
3:10 PM 86.0 °F 86.1 °F 60.8 °F 43% 29.98 in 3.7 mi ESE 2.3 mph - N/A   Mostly Cloudy
4:10 PM 84.2 °F 83.8 °F 59.0 °F 42% 29.98 in 3.1 mi NE 5.8 mph - N/A   Haze
5:30 PM 82 °F - 62 °F 42% 29.86 in 2 mi Calm Calm - -   Haze
6:10 PM 80.6 °F 81.1 °F 59.0 °F 48% 30.01 in 2.5 mi East 6.9 mph - N/A   Haze
7:10 PM 78.8 °F - 60.8 °F 54% 30.04 in 2.5 mi East 6.9 mph - N/A   Haze
8:10 PM 75.2 °F - 60.8 °F 61% 30.06 in 2.5 mi East 5.8 mph - N/A   Haze
8:30 PM 78 °F - 69 °F 66% 29.94 in 2 mi Calm Calm - -   Haze
9:10 PM 73.4 °F - 60.8 °F 65% 30.06 in 2.5 mi East 3.5 mph - N/A   Haze
11:30 PM 73 °F - 67 °F 78% 29.95 in 2 mi Calm Calm - -   Haze